W2MMD-13 Weather Reports


time (UTC)temp
C
wind
direction
speed
KPH
gust
KPH
rain 1hr
cm
rain 24hr
cm
rain mn
cm
humidity
%
barometer
mb
20260504150840 18 203 19.3 19.3 0.00 0.00 0.00 46
20260504140851 17 203 17.7 17.7 0.00 0.00 0.00 56
20260504140839 17 203 14.5 14.5 0.00 0.00 0.00 55
20260504081839 8 158 6.4 6.4 0.00 0.00 0.00 78
20260504080852 8 158 11.3 11.3 0.00 0.00 0.00 77
20260504080839 8 158 8.0 8.0 0.00 0.00 0.00 77
20260504045839 8 113 3.2 3.2 0.00 0.00 0.00 68
20260504044839 8 180 4.8 4.8 0.00 0.00 0.00 68
20260504043850 8 180 8.0 8.0 0.00 0.00 0.00 67
20260504043839 8 180 6.4 6.4 0.00 0.00 0.00 67
20260504042839 8 203 6.4 6.4 0.00 0.00 0.00 67
20260504041851 8 158 4.8 4.8 0.00 0.00 0.00 65
20260504041840 8 158 6.4 6.4 0.00 0.00 0.00 66
20260504040840 8 180 4.8 4.8 0.00 0.00 0.00 65
20260504035851 8 180 6.4 6.4 0.00 0.00 0.00 64
20260504035840 8 203 4.8 4.8 0.00 0.00 0.00 64
20260504034840 8 203 4.8 4.8 0.00 0.00 0.00 64
20260504033840 8 203 4.8 4.8 0.00 0.00 0.00 64
20260504032852 8 180 4.8 4.8 0.00 0.00 0.00 63
20260504032840 8 135 3.2 3.2 0.00 0.00 0.00 63
20260504031840 8 158 4.8 4.8 0.00 0.00 0.00 62
20260504030840 8 158 3.2 3.2 0.00 0.00 0.00 62
20260504025840 8 158 4.8 4.8 0.00 0.00 0.00 61
20260504024941 8 180 4.8 4.8 0.00 0.00 0.00 59
20260504024840 8 180 4.8 4.8 0.00 0.00 0.00 59
20260504023851 8 203 4.8 4.8 0.00 0.00 0.00 59
20260504023840 8 203 3.2 3.2 0.00 0.00 0.00 59
20260504022840 8 135 0.0 0.0 0.00 0.00 0.00 59
20260504021851 8 180 6.4 6.4 0.00 0.00 0.00 60
20260504021839 8 203 4.8 4.8 0.00 0.00 0.00 60
20260504020839 8 203 8.0 8.0 0.00 0.00 0.00 60
20260504015839 9 158 3.2 3.2 0.00 0.00 0.00 58
20260504014839 9 180 1.6 1.6 0.00 0.00 0.00 57
20260504013839 9 135 4.8 4.8 0.00 0.00 0.00 55
20260504012839 9 180 3.2 3.2 0.00 0.00 0.00 55
20260504011839 10 158 3.2 3.2 0.00 0.00 0.00 54
20260504010851 10 135 4.8 4.8 0.00 0.00 0.00 54
20260504010839 10 135 3.2 3.2 0.00 0.00 0.00 53
20260504005839 10 180 4.8 4.8 0.00 0.00 0.00 53
20260504004851 10 158 3.2 3.2 0.00 0.00 0.00 52
20260504004839 10 180 1.6 1.6 0.00 0.00 0.00 52
20260504003839 11 180 3.2 3.2 0.00 0.00 0.00 50
20260504002851 11 158 6.4 6.4 0.00 0.00 0.00 48
20260504002839 11 158 3.2 3.2 0.00 0.00 0.00 48
20260504001839 12 180 4.8 4.8 0.00 0.00 0.00 45
20260504000839 12 248 6.4 6.4 0.00 0.00 0.00 43
20260503235839 13 203 6.4 6.4 0.00 0.00 0.00 41
20260503234839 13 225 8.0 8.0 0.00 0.00 0.00 38
20260503233850 15 203 11.3 11.3 0.00 0.00 0.00 38
20260503233839 15 225 9.7 9.7 0.00 0.00 0.00 38
20260503232839 15 248 6.4 6.4 0.00 0.00 0.00 36
20260503231852 15 248 6.4 6.4 0.00 0.00 0.00 36
20260503231839 15 248 8.0 8.0 0.00 0.00 0.00 36
20260503230839 15 248 11.3 11.3 0.00 0.00 0.00 36
20260503225930 15 225 12.9 12.9 0.00 0.00 0.00 35
20260503225839 15 225 12.9 12.9 0.00 0.00 0.00 35
20260503224852 15 225 14.5 14.5 0.00 0.00 0.00 34
20260503224839 15 248 12.9 12.9 0.00 0.00 0.00 34
20260503223839 16 270 14.5 14.5 0.00 0.00 0.00 33
20260503222850 16 270 11.3 11.3 0.00 0.00 0.00 33
20260503222839 16 270 9.7 9.7 0.00 0.00 0.00 33
20260503221840 16 248 9.7 9.7 0.00 0.00 0.00 34
20260503220852 16 248 16.1 16.1 0.00 0.00 0.00 34
20260503220840 16 248 8.0 8.0 0.00 0.00 0.00 34
20260503220135 16 270 12.9 12.9 0.00 0.00 0.00 34
20260503215851 16 270 12.9 12.9 0.00 0.00 0.00 34
20260503215840 16 270 9.7 9.7 0.00 0.00 0.00 34
20260503215255 16 293 20.9 20.9 0.00 0.00 0.00 34
20260503214840 16 293 20.9 20.9 0.00 0.00 0.00 34
20260503214340 16 248 12.9 12.9 0.00 0.00 0.00 35
20260503213851 16 248 12.9 12.9 0.00 0.00 0.00 35
20260503213840 16 248 9.7 9.7 0.00 0.00 0.00 35
20260503213254 16 315 16.1 16.1 0.00 0.00 0.00 34
20260503212840 16 315 16.1 16.1 0.00 0.00 0.00 34
20260503211840 16 248 12.9 12.9 0.00 0.00 0.00 35
20260503210853 15 248 17.7 17.7 0.00 0.00 0.00 36
20260503210840 15 248 16.1 16.1 0.00 0.00 0.00 36
20260503205840 15 270 24.1 24.1 0.00 0.00 0.00 35
20260503204840 15 270 29.0 29.0 0.00 0.00 0.00 35
20260503203840 15 270 20.9 20.9 0.00 0.00 0.00 35
20260503202852 15 270 17.7 17.7 0.00 0.00 0.00 35
20260503202840 15 270 20.9 20.9 0.00 0.00 0.00 35
20260503201840 15 293 14.5 14.5 0.00 0.00 0.00 35
20260503200852 15 293 17.7 17.7 0.00 0.00 0.00 34
20260503200840 15 270 17.7 17.7 0.00 0.00 0.00 34
20260503195852 16 270 29.0 29.0 0.00 0.00 0.00 36
20260503195839 16 270 24.1 24.1 0.00 0.00 0.00 36
20260503194839 16 248 27.4 27.4 0.00 0.00 0.00 34
20260503193839 15 270 12.9 12.9 0.00 0.00 0.00 35
20260503192839 15 225 12.9 12.9 0.00 0.00 0.00 36
20260503191839 15 248 14.5 14.5 0.00 0.00 0.00 34
20260503190839 15 270 17.7 17.7 0.00 0.00 0.00 35
20260503185839 15 270 19.3 19.3 0.00 0.00 0.00 35
20260503184850 15 293 20.9 20.9 0.00 0.00 0.00 35
20260503184839 15 270 27.4 27.4 0.00 0.00 0.00 35
20260503183839 15 270 11.3 11.3 0.00 0.00 0.00 36
20260503182852 13 248 17.7 17.7 0.00 0.00 0.00 37
20260503182839 13 248 19.3 19.3 0.00 0.00 0.00 37
20260503181839 13 270 20.9 20.9 0.00 0.00 0.00 37
20260503180839 14 225 17.7 17.7 0.00 0.00 0.00 36
20260503175839 14 248 24.1 24.1 0.00 0.00 0.00 37
20260503174839 13 270 19.3 19.3 0.00 0.00 0.00 39
20260503173839 14 270 12.9 12.9 0.00 0.00 0.00 38
20260503172839 14 338 16.1 16.1 0.00 0.00 0.00 40
20260503171851 13 338 20.9 20.9 0.00 0.00 0.00 40
20260503171839 14 338 12.9 12.9 0.00 0.00 0.00 40
20260503170839 13 248 9.7 9.7 0.00 0.00 0.00 40